STARLINK-34420 (64483 NORAD) Tracking and Keplerian Element Data

This shows tracking and keplerian element data for the satellite.

Feedback or suggestion? Click here.




ElementValue
Catalog64483
NameSTARLINK-34420
Epoch Orbit2900
Epoch Day354.06791272
Epoch Year2025
RAAN126.2321
Inclination53.1582
Eccentricity1.55E-05
Argument of Perigee76.5708
Mean Anonmoly283.531
Mean Motion15.30210251
Decay Rate0.00016535
L11 64483U 25133M 25354.06791272 .00016535 00000+0 56897-3 0 9999
L22 64483 53.1582 126.2321 0000155 76.5708 283.5310 15.30210251 29005



Live tracking and technical data element details for STARLINK-34420 (NORAD 64483). STARLINK-34420 can be tracked NOW for your location showing map with azimuth and elevation plus other details from your city location.







IsCatalogInMostPopularTable: catalog: 64483, numindb: 4
Update: records affected: 1



GetName: 64483 STARLINK-34420

Hit Count: updated at: Tue, 10 Feb 2026 03:04:56 GMT